STARLINK-1282 (45409 NORAD) Tracking and Keplerian Element Data

This shows tracking and keplerian element data for the satellite.

Feedback or suggestion? Click here.




ElementValue
Catalog45409
NameSTARLINK-1282
Epoch Orbit1139
Epoch Day148.83334491
Epoch Year2020
RAAN270.026
Inclination52.9982
Eccentricity0.0001491
Argument of Perigee40.6098
Mean Anonmoly313.6289
Mean Motion15.62741954
Decay Rate0.00045832
L11 45409U 20019BB 20148.83334491 .00045832 00000-0 50375-3 0 9999
L22 45409 52.9982 270.0260 0001491 40.6098 313.6289 15.62741954 11398

Live tracking and technical data element details for STARLINK-1282 (NORAD 45409). STARLINK-1282 can be tracked NOW for your location showing map with azimuth and elevation plus other details from your city location.

Track the satellite on the map from your city or location and see movement details for azimuth, elevation, latitude, longitude, range, height, and movement on the map or in text.







IsCatalogInMostPopularTable: catalog: 45409, numindb: 30
Update: records affected: 1



GetName: 45409 STARLINK-1282

Hit Count: updated at: Sat, 30 May 2020 16:05:21 GMT